Torna al catalogo

SCOUT A DEB

AttivoPO
NORAD 2226·DEBRIS·🇺🇸 United States

Lanciato Dec 22, 1965 da Vandenberg Space Force Base

Loading…

Prossimi Passaggi (prossime 24 ore)

TLE

AggiornatoSource: Space-Track

Epoca: Sep 14, 2026, 02:36 UTC

1 02226U 65109D   26257.10845339  .00000165  00000-0  19150-3 0  9999
2 02226  89.0495 298.3348 0248575 145.5434 216.2121 13.51301574965693

Traccia SCOUT A DEB in tempo reale con AllMySat

Download on the App Store